Queen Isabella — A8IE2 — position and weather

sailwx.info

Track history (hours):
 
Tides and Currents Weather Stations Pressure Air Temp Water Temp Dewpoint Dewpoint Depression Visibility Wind Speed Wind Dir Waves Ship Positions

Queen Isabella

Last reported at 2014-Jul-22 01:31 UTC. Time now 2014-Jul-23 03:44 UTC.
Position N 38°50' W 009°56'.

Length 131 m; draft 6.6 m.

Type: Ship. MMSI: 636090959.

Date/timePositionNaut miles runAvg speedWind from/ knotsBaromVisibWave heightAir tempDewpointWater temp
2014-Jul-22 01:31N 38°50' W 009°56'1412.3
2014-Jul-22 00:25N 38°37' W 009°53'1413.7
2014-Jul-21 23:26N 38°36' W 009°36'1112.5
2014-Jul-21 22:31N 38°38' W 009°21'1111.8
2014-Jul-21 21:33N 38°41' W 009°07'3 2.8
2014-Jul-21 20:33N 38°41' W 009°04'0 0.0
2014-Jul-21 20:18N 38°41' W 009°04'0 0.0
2014-Jul-21 19:33N 38°41' W 009°04'0 0.0
2014-Jul-21 18:33N 38°41' W 009°04'0 0.0
2014-Jul-21 17:33N 38°41' W 009°04'0 0.0
2014-Jul-21 16:33N 38°41' W 009°04'0 0.0
2014-Jul-21 15:33N 38°41' W 009°04'0 0.0
2014-Jul-21 14:33N 38°41' W 009°04'0 0.0
2014-Jul-21 13:33N 38°41' W 009°04'0 0.0
2014-Jul-21 12:33N 38°41' W 009°04'0 0.0
2014-Jul-21 11:33N 38°41' W 009°04'0 0.0
2014-Jul-21 10:33N 38°41' W 009°04'2 2.4
2014-Jul-21 09:33N 38°41' W 009°07'1411.9
2014-Jul-21 08:23N 38°37' W 009°24'8 0.7
2014-Jul-20 21:12N 38°29' W 009°24'913.7
2014-Jul-20 20:33N 38°20' W 009°24'1413.6
2014-Jul-20 19:34N 38°07' W 009°25'1413.7
2014-Jul-20 18:33N 37°53' W 009°25'1313.2
2014-Jul-20 17:33N 37°40' W 009°25'1313.0
2014-Jul-20 16:33N 37°27' W 009°26'34011.7
2014-Jul-19 11:31N 36°06' W 002°33'1212.7
2014-Jul-19 10:33N 36°06' W 002°18'1413.5
2014-Jul-19 09:33N 36°07' W 002°01'1613.2
2014-Jul-19 08:20N 36°07' W 001°41'1012.9
2014-Jul-19 07:33N 36°08' W 001°29'1312.7
2014-Jul-19 06:33N 36°09' W 001°13'1212.4
2014-Jul-19 05:34N 36°09' W 000°58'1312.1
2014-Jul-19 04:31N 36°09' W 000°42'28 0.9
2014-Jul-17 20:24N 36°01' W 000°09'1 1.2
2014-Jul-17 19:19N 36°01' W 000°08'5 6.5
2014-Jul-17 18:33N 35°56' W 000°07'1 0.4
2014-Jul-17 15:29N 35°56' W 000°06'2 1.4
2014-Jul-17 14:09N 35°58' W 000°06'1 1.2
2014-Jul-17 13:07N 35°59' W 000°06'3 0.9
2014-Jul-17 09:32N 36°02' W 000°08'1 0.9
2014-Jul-17 08:30N 36°03' W 000°08'2 0.8
2014-Jul-17 06:27N 36°04' W 000°10'1 0.6
2014-Jul-17 05:14N 36°05' W 000°10'1 0.5
2014-Jul-17 04:14N 36°05' W 000°11'1 0.3
2014-Jul-17 02:15N 36°06' W 000°11'1 0.7
2014-Jul-17 01:17N 36°06' W 000°10'2 1.0
2014-Jul-16 23:32N 36°07' W 000°08'1 1.4
2014-Jul-16 22:30N 36°07' W 000°06'1 1.6
2014-Jul-16 21:33N 36°08' W 000°05'2 1.8
2014-Jul-16 20:33N 36°09' W 000°03'2 1.9
2014-Jul-16 19:16N 36°11' W 000°01'1 1.5
2014-Jul-16 18:28N 36°12' W 000°02'9 4.6
2014-Jul-16 16:33N 36°04' W 000°07'4 2.4
2014-Jul-16 15:06N 36°05' W 000°03'8 0.6
2014-Jul-16 02:24N 36°01' W 000°11'1 0.9
2014-Jul-16 01:31N 36°01' W 000°10'49 8.1
2014-Jul-15 19:33N 36°49' W 000°04'7114.2
2014-Jul-15 14:33N 37°59' E 000°12'9413.3
2014-Jul-15 07:29N 39°31' W 000°09'8 2.8
2014-Jul-15 04:31N 39°39' W 000°13'0 0.0
2014-Jul-14 06:33N 39°39' W 000°13'5 3.8
2014-Jul-14 05:12N 39°35' W 000°09'6711.6
2014-Jul-13 23:26N 38°32' E 000°18'2513.2
2014-Jul-13 21:32N 38°11' W 000°00'1313.3
2014-Jul-13 20:33N 38°00' W 000°09'1413.7
2014-Jul-13 19:31N 37°48' W 000°19'1313.6
2014-Jul-13 18:33N 37°37' W 000°28'25413.8
2014-Jul-13 00:05N 35°58' W 005°21'  
Track history (hours):
 
Tides and Currents Weather Stations Pressure Air Temp Water Temp Dewpoint Dewpoint Depression Visibility Wind Speed Wind Dir Waves Ship Positions

Queen Isabella

Last reported at 2014-Jul-22 01:31 UTC. Time now 2014-Jul-23 03:44 UTC.
Position N 38°50' W 009°56'.

Length 131 m; draft 6.6 m.

Type: Ship. MMSI: 636090959.

Date/timePositionNaut miles runAvg speedWind from/ knotsBaromVisibWave heightAir tempDewpointWater temp
2014-Jul-22 01:31N 38°50' W 009°56'1412.3
2014-Jul-22 00:25N 38°37' W 009°53'1413.7
2014-Jul-21 23:26N 38°36' W 009°36'1112.5
2014-Jul-21 22:31N 38°38' W 009°21'1111.8
2014-Jul-21 21:33N 38°41' W 009°07'3 2.8
2014-Jul-21 20:33N 38°41' W 009°04'0 0.0
2014-Jul-21 20:18N 38°41' W 009°04'0 0.0
2014-Jul-21 19:33N 38°41' W 009°04'0 0.0
2014-Jul-21 18:33N 38°41' W 009°04'0 0.0
2014-Jul-21 17:33N 38°41' W 009°04'0 0.0
2014-Jul-21 16:33N 38°41' W 009°04'0 0.0
2014-Jul-21 15:33N 38°41' W 009°04'0 0.0
2014-Jul-21 14:33N 38°41' W 009°04'0 0.0
2014-Jul-21 13:33N 38°41' W 009°04'0 0.0
2014-Jul-21 12:33N 38°41' W 009°04'0 0.0
2014-Jul-21 11:33N 38°41' W 009°04'0 0.0
2014-Jul-21 10:33N 38°41' W 009°04'2 2.4
2014-Jul-21 09:33N 38°41' W 009°07'1411.9
2014-Jul-21 08:23N 38°37' W 009°24'8 0.7
2014-Jul-20 21:12N 38°29' W 009°24'913.7
2014-Jul-20 20:33N 38°20' W 009°24'1413.6
2014-Jul-20 19:34N 38°07' W 009°25'1413.7
2014-Jul-20 18:33N 37°53' W 009°25'1313.2
2014-Jul-20 17:33N 37°40' W 009°25'1313.0
2014-Jul-20 16:33N 37°27' W 009°26'34011.7
2014-Jul-19 11:31N 36°06' W 002°33'1212.7
2014-Jul-19 10:33N 36°06' W 002°18'1413.5
2014-Jul-19 09:33N 36°07' W 002°01'1613.2
2014-Jul-19 08:20N 36°07' W 001°41'1012.9
2014-Jul-19 07:33N 36°08' W 001°29'1312.7
2014-Jul-19 06:33N 36°09' W 001°13'1212.4
2014-Jul-19 05:34N 36°09' W 000°58'1312.1
2014-Jul-19 04:31N 36°09' W 000°42'28 0.9
2014-Jul-17 20:24N 36°01' W 000°09'1 1.2
2014-Jul-17 19:19N 36°01' W 000°08'5 6.5
2014-Jul-17 18:33N 35°56' W 000°07'1 0.4
2014-Jul-17 15:29N 35°56' W 000°06'2 1.4
2014-Jul-17 14:09N 35°58' W 000°06'1 1.2
2014-Jul-17 13:07N 35°59' W 000°06'3 0.9
2014-Jul-17 09:32N 36°02' W 000°08'1 0.9
2014-Jul-17 08:30N 36°03' W 000°08'2 0.8
2014-Jul-17 06:27N 36°04' W 000°10'1 0.6
2014-Jul-17 05:14N 36°05' W 000°10'1 0.5
2014-Jul-17 04:14N 36°05' W 000°11'1 0.3
2014-Jul-17 02:15N 36°06' W 000°11'1 0.7
2014-Jul-17 01:17N 36°06' W 000°10'2 1.0
2014-Jul-16 23:32N 36°07' W 000°08'1 1.4
2014-Jul-16 22:30N 36°07' W 000°06'1 1.6
2014-Jul-16 21:33N 36°08' W 000°05'2 1.8
2014-Jul-16 20:33N 36°09' W 000°03'2 1.9
2014-Jul-16 19:16N 36°11' W 000°01'1 1.5
2014-Jul-16 18:28N 36°12' W 000°02'9 4.6
2014-Jul-16 16:33N 36°04' W 000°07'4 2.4
2014-Jul-16 15:06N 36°05' W 000°03'8 0.6
2014-Jul-16 02:24N 36°01' W 000°11'1 0.9
2014-Jul-16 01:31N 36°01' W 000°10'49 8.1
2014-Jul-15 19:33N 36°49' W 000°04'7114.2
2014-Jul-15 14:33N 37°59' E 000°12'9413.3
2014-Jul-15 07:29N 39°31' W 000°09'8 2.8
2014-Jul-15 04:31N 39°39' W 000°13'0 0.0
2014-Jul-14 06:33N 39°39' W 000°13'5 3.8
2014-Jul-14 05:12N 39°35' W 000°09'6711.6
2014-Jul-13 23:26N 38°32' E 000°18'2513.2
2014-Jul-13 21:32N 38°11' W 000°00'1313.3
2014-Jul-13 20:33N 38°00' W 000°09'1413.7
2014-Jul-13 19:31N 37°48' W 000°19'1313.6
2014-Jul-13 18:33N 37°37' W 000°28'25413.8
2014-Jul-13 00:05N 35°58' W 005°21'  

Dump ship's entire track history